Location: Newark
(33.6439°N, 114.9881°W)
Time: 00:42:51
(UTC+00:00)

Transit 2A Rocket - Pass Details

Date: 24 August 2019
Orbit: 592 x 911 km, 66.7° (Epoch: 18 September)

Event Time Altitude Azimuth Distance (km) Brightness Sun altitude
Rises 03:11:20 0° 239° (WSW) 3,470 9.0 -11.6°
Reaches altitude 10° 03:14:23 10° 253° (WSW) 2,495 8.4 -12.2°
Maximum altitude 03:18:55 23° 305° (NW) 1,673 7.7 -13.0°
Drops below altitude 10° 03:23:13 10° 357° (N) 2,348 7.9 -13.9°
Sets 03:26:01 0° 12° (NNE) 3,219 8.4 -14.4°
